Time,TemperatureF,DewpointF,PressureIn,WindDirection,WindDirectionDegrees,WindSpeedMPH,WindSpeedGustMPH,Humidity,HourlyPrecipIn,Conditions,Clouds,dailyrainin,SoftwareType,DateUTC
2013-09-09 00:01:00,82.4,72.5,29.94,ENE,68,0.4,1.1,72,0.00,,,0.00,WUHU216HW,2013-09-09 04:01:00,
2013-09-09 00:06:00,82.3,72.7,29.94,ENE,68,0.2,1.1,73,0.00,,,0.00,WUHU216HW,2013-09-09 04:06:00,
2013-09-09 00:11:00,82.1,72.5,29.94,NNE,23,0.0,1.6,73,0.00,,,0.00,WUHU216HW,2013-09-09 04:11:00,
2013-09-09 00:16:00,82.1,72.5,29.93,ENE,68,0.0,1.6,73,0.00,,,0.00,WUHU216HW,2013-09-09 04:16:00,
2013-09-09 00:21:00,82.1,72.5,29.93,SE,135,0.2,1.8,73,0.00,,,0.00,WUHU216HW,2013-09-09 04:21:00,
2013-09-09 00:26:00,81.9,72.0,29.93,WNW,293,1.8,1.8,72,0.00,,,0.00,WUHU216HW,2013-09-09 04:26:00,
2013-09-09 00:31:00,81.9,72.0,29.93,ENE,68,0.0,1.8,72,0.00,,,0.00,WUHU216HW,2013-09-09 04:31:00,
2013-09-09 00:36:00,81.7,72.2,29.93,SSE,158,0.0,0.7,73,0.00,,,0.00,WUHU216HW,2013-09-09 04:36:00,
2013-09-09 00:41:00,81.7,72.2,29.93,NE,45,0.0,0.7,73,0.00,,,0.00,WUHU216HW,2013-09-09 04:41:00,
2013-09-09 00:46:00,81.7,72.2,29.93,NE,45,0.0,1.1,73,0.00,,,0.00,WUHU216HW,2013-09-09 04:46:00,
2013-09-09 00:51:00,81.5,72.0,29.93,SE,135,0.2,1.1,73,0.00,,,0.00,WUHU216HW,2013-09-09 04:51:00,
2013-09-09 00:56:00,81.5,72.5,29.93,ESE,113,1.1,1.1,74,0.00,,,0.00,WUHU216HW,2013-09-09 04:56:00,
2013-09-09 01:01:00,81.5,72.5,29.93,NE,45,0.0,1.3,74,0.00,,,0.00,WUHU216HW,2013-09-09 05:01:00,
2013-09-09 01:06:00,81.4,72.3,29.93,East,90,0.0,1.3,74,0.00,,,0.00,WUHU216HW,2013-09-09 05:06:00,
2013-09-09 01:11:00,81.4,72.3,29.93,ESE,113,0.0,0.9,74,0.00,,,0.00,WUHU216HW,2013-09-09 05:11:00,
2013-09-09 01:16:00,81.4,72.3,29.93,North,0,0.0,0.9,74,0.00,,,0.00,WUHU216HW,2013-09-09 05:16:00,
2013-09-09 01:21:00,81.4,72.3,29.92,WSW,248,0.0,0.2,74,0.00,,,0.00,WUHU216HW,2013-09-09 05:21:00,
2013-09-09 01:26:00,81.2,72.6,29.92,South,180,0.2,0.4,75,0.00,,,0.00,WUHU216HW,2013-09-09 05:26:00,
2013-09-09 01:31:00,81.2,72.6,29.92,West,270,0.4,0.4,75,0.00,,,0.00,WUHU216HW,2013-09-09 05:31:00,
2013-09-09 01:36:00,81.2,72.6,29.92,WSW,248,0.0,0.4,75,0.00,,,0.00,WUHU216HW,2013-09-09 05:36:00,
2013-09-09 01:41:00,81.2,72.6,29.92,WNW,293,0.0,0.4,75,0.00,,,0.00,WUHU216HW,2013-09-09 05:41:00,
2013-09-09 01:46:00,81.0,72.4,29.92,ESE,113,0.0,0.4,75,0.00,,,0.00,WUHU216HW,2013-09-09 05:46:00,
2013-09-09 01:51:00,81.0,72.4,29.92,North,0,0.0,0.4,75,0.00,,,0.00,WUHU216HW,2013-09-09 05:51:00,
2013-09-09 01:56:00,81.0,72.4,29.92,NNW,338,0.0,0.2,75,0.00,,,0.00,WUHU216HW,2013-09-09 05:56:00,
2013-09-09 02:01:00,81.0,72.4,29.92,NNW,338,0.0,0.2,75,0.00,,,0.00,WUHU216HW,2013-09-09 06:01:00,
2013-09-09 02:06:00,81.0,72.4,29.92,North,0,0.0,0.0,75,0.00,,,0.00,WUHU216HW,2013-09-09 06:06:00,
2013-09-09 02:11:00,80.8,72.2,29.92,North,0,0.0,0.0,75,0.00,,,0.00,WUHU216HW,2013-09-09 06:11:00,
2013-09-09 02:16:00,80.8,72.2,29.91,ENE,68,0.0,0.0,75,0.00,,,0.00,WUHU216HW,2013-09-09 06:16:00,
2013-09-09 02:21:00,80.6,72.4,29.91,NNE,23,0.0,0.0,76,0.00,,,0.00,WUHU216HW,2013-09-09 06:21:00,
2013-09-09 02:26:00,80.6,72.4,29.91,ENE,68,0.0,0.4,76,0.00,,,0.00,WUHU216HW,2013-09-09 06:26:00,
2013-09-09 02:31:00,80.6,72.4,29.91,East,90,0.0,0.4,76,0.00,,,0.00,WUHU216HW,2013-09-09 06:31:00,
2013-09-09 02:36:00,80.5,72.2,29.91,North,0,0.0,0.4,76,0.00,,,0.00,WUHU216HW,2013-09-09 06:36:00,
2013-09-09 02:41:00,80.5,72.2,29.91,North,0,0.0,0.2,76,0.00,,,0.00,WUHU216HW,2013-09-09 06:41:00,
2013-09-09 02:46:00,80.5,72.2,29.91,NNW,338,0.0,0.0,76,0.00,,,0.00,WUHU216HW,2013-09-09 06:46:00,
2013-09-09 02:51:00,80.3,72.5,29.90,NE,45,0.0,0.0,77,0.00,,,0.00,WUHU216HW,2013-09-09 06:51:00,
2013-09-09 02:56:00,80.3,72.5,29.90,NNW,338,0.0,0.0,77,0.00,,,0.00,WUHU216HW,2013-09-09 06:56:00,
2013-09-09 03:01:00,80.1,72.3,29.91,NNW,338,0.0,0.0,77,0.00,,,0.00,WUHU216HW,2013-09-09 07:01:00,
2013-09-09 03:06:00,79.9,72.5,29.90,ENE,68,0.0,0.0,78,0.00,,,0.00,WUHU216HW,2013-09-09 07:06:00,
2013-09-09 03:11:00,79.9,72.5,29.90,ENE,68,0.0,0.0,78,0.00,,,0.00,WUHU216HW,2013-09-09 07:11:00,
2013-09-09 03:16:00,79.7,72.3,29.90,ENE,68,0.0,0.0,78,0.00,,,0.00,WUHU216HW,2013-09-09 07:16:00,
2013-09-09 03:21:00,79.7,72.3,29.90,ENE,68,0.0,0.0,78,0.00,,,0.00,WUHU216HW,2013-09-09 07:21:00,
2013-09-09 03:26:00,79.6,72.1,29.90,ENE,68,0.0,0.0,78,0.00,,,0.00,WUHU216HW,2013-09-09 07:26:00,
2013-09-09 03:31:00,79.6,72.1,29.89,ENE,68,0.0,0.0,78,0.00,,,0.00,WUHU216HW,2013-09-09 07:31:00,
2013-09-09 03:36:00,79.4,71.9,29.89,ENE,68,0.0,0.0,78,0.00,,,0.00,WUHU216HW,2013-09-09 07:36:00,
2013-09-09 03:41:00,79.4,72.4,29.89,NNW,338,0.0,0.0,79,0.00,,,0.00,WUHU216HW,2013-09-09 07:41:00,
2013-09-09 03:46:00,79.4,72.4,29.89,North,0,0.0,0.0,79,0.00,,,0.00,WUHU216HW,2013-09-09 07:46:00,
2013-09-09 03:51:00,79.4,72.4,29.89,North,0,0.0,0.0,79,0.00,,,0.00,WUHU216HW,2013-09-09 07:51:00,
2013-09-09 03:56:00,79.4,72.4,29.89,North,0,0.0,0.0,79,0.00,,,0.00,WUHU216HW,2013-09-09 07:56:00,
2013-09-09 04:01:00,79.4,72.4,29.89,North,0,0.0,0.0,79,0.00,,,0.00,WUHU216HW,2013-09-09 08:01:00,
2013-09-09 04:06:00,79.4,72.7,29.89,North,0,0.0,0.0,80,0.00,,,0.00,WUHU216HW,2013-09-09 08:06:00,
2013-09-09 04:11:00,79.2,72.5,29.89,North,0,0.0,0.0,80,0.00,,,0.00,WUHU216HW,2013-09-09 08:11:00,
2013-09-09 04:16:00,79.2,72.5,29.90,North,0,0.0,0.0,80,0.00,,,0.00,WUHU216HW,2013-09-09 08:16:00,
2013-09-09 04:21:00,79.0,72.4,29.89,North,0,0.0,0.0,80,0.00,,,0.00,WUHU216HW,2013-09-09 08:21:00,
2013-09-09 04:26:00,78.8,72.2,29.89,North,0,0.0,0.0,80,0.00,,,0.00,WUHU216HW,2013-09-09 08:26:00,
2013-09-09 04:31:00,78.8,72.2,29.89,NNW,338,0.0,0.0,80,0.00,,,0.00,WUHU216HW,2013-09-09 08:31:00,
2013-09-09 04:36:00,78.8,72.2,29.89,NNW,338,0.0,0.0,80,0.00,,,0.00,WUHU216HW,2013-09-09 08:36:00,
2013-09-09 04:41:00,78.7,72.0,29.90,NNW,338,0.0,0.0,80,0.00,,,0.00,WUHU216HW,2013-09-09 08:41:00,
2013-09-09 04:46:00,78.7,72.0,29.90,NE,45,0.0,0.0,80,0.00,,,0.00,WUHU216HW,2013-09-09 08:46:00,
2013-09-09 04:51:00,78.5,71.8,29.90,NE,45,0.0,0.0,80,0.00,,,0.00,WUHU216HW,2013-09-09 08:51:00,
2013-09-09 04:56:00,78.3,71.6,29.90,NE,45,0.0,0.0,80,0.00,,,0.00,WUHU216HW,2013-09-09 08:56:00,
2013-09-09 05:01:00,78.1,71.5,29.90,NE,45,0.0,0.0,80,0.00,,,0.00,WUHU216HW,2013-09-09 09:01:00,
2013-09-09 05:06:00,78.1,71.8,29.90,North,0,0.0,0.0,81,0.00,,,0.00,WUHU216HW,2013-09-09 09:06:00,
2013-09-09 05:11:00,78.1,71.8,29.90,NNW,338,0.0,0.0,81,0.00,,,0.00,WUHU216HW,2013-09-09 09:11:00,
2013-09-09 05:16:00,78.1,71.8,29.90,NNW,338,0.0,0.0,81,0.00,,,0.00,WUHU216HW,2013-09-09 09:16:00,
2013-09-09 05:21:00,78.1,71.8,29.90,North,0,0.0,0.0,81,0.00,,,0.00,WUHU216HW,2013-09-09 09:21:00,
2013-09-09 05:26:00,78.1,71.8,29.90,NNE,23,0.0,0.0,81,0.00,,,0.00,WUHU216HW,2013-09-09 09:26:00,
2013-09-09 05:31:00,78.1,71.8,29.90,NE,45,0.0,0.0,81,0.00,,,0.00,WUHU216HW,2013-09-09 09:31:00,
2013-09-09 05:36:00,78.1,71.8,29.91,NNW,338,0.0,0.0,81,0.00,,,0.00,WUHU216HW,2013-09-09 09:36:00,
2013-09-09 05:41:00,78.1,71.8,29.91,NNW,338,0.0,0.0,81,0.00,,,0.00,WUHU216HW,2013-09-09 09:41:00,
2013-09-09 05:46:00,78.1,71.8,29.91,NNW,338,0.0,0.0,81,0.00,,,0.00,WUHU216HW,2013-09-09 09:46:00,
2013-09-09 05:51:00,78.1,71.8,29.91,NNW,338,0.0,0.0,81,0.00,,,0.00,WUHU216HW,2013-09-09 09:51:00,
2013-09-09 05:56:00,78.1,71.8,29.91,North,0,0.0,0.0,81,0.00,,,0.00,WUHU216HW,2013-09-09 09:56:00,
2013-09-09 06:01:00,78.1,71.8,29.91,NNE,23,0.0,0.0,81,0.00,,,0.00,WUHU216HW,2013-09-09 10:01:00,
2013-09-09 06:06:00,78.1,71.8,29.91,NNE,23,0.0,0.0,81,0.00,,,0.00,WUHU216HW,2013-09-09 10:06:00,
2013-09-09 06:11:00,78.1,71.8,29.91,NNE,23,0.0,0.0,81,0.00,,,0.00,WUHU216HW,2013-09-09 10:11:00,
2013-09-09 06:16:00,77.9,71.6,29.92,NNE,23,0.0,0.0,81,0.00,,,0.00,WUHU216HW,2013-09-09 10:16:00,
2013-09-09 06:21:00,77.9,71.6,29.92,NNE,23,0.0,0.0,81,0.00,,,0.00,WUHU216HW,2013-09-09 10:21:00,
2013-09-09 06:26:00,77.8,71.5,29.92,NNE,23,0.0,0.0,81,0.00,,,0.00,WUHU216HW,2013-09-09 10:26:00,
2013-09-09 06:31:00,77.8,71.5,29.92,NNE,23,0.0,0.0,81,0.00,,,0.00,WUHU216HW,2013-09-09 10:31:00,
2013-09-09 06:36:00,77.8,71.5,29.92,NNE,23,0.0,0.0,81,0.00,,,0.00,WUHU216HW,2013-09-09 10:36:00,
2013-09-09 06:41:00,77.8,71.5,29.92,North,0,0.0,0.0,81,0.00,,,0.00,WUHU216HW,2013-09-09 10:41:00,
2013-09-09 06:46:00,77.8,71.8,29.92,NNW,338,0.0,0.0,82,0.00,,,0.00,WUHU216HW,2013-09-09 10:46:00,
2013-09-09 06:51:00,77.8,71.8,29.92,North,0,0.0,0.0,82,0.00,,,0.00,WUHU216HW,2013-09-09 10:51:00,
2013-09-09 06:56:00,77.6,71.3,29.92,NNW,338,0.0,0.0,81,0.00,,,0.00,WUHU216HW,2013-09-09 10:56:00,
2013-09-09 07:01:00,77.6,71.6,29.92,NNW,338,0.0,0.0,82,0.00,,,0.00,WUHU216HW,2013-09-09 11:01:00,
2013-09-09 07:06:00,77.6,71.3,29.93,NNW,338,0.0,0.0,81,0.00,,,0.00,WUHU216HW,2013-09-09 11:06:00,
2013-09-09 07:11:00,77.4,71.1,29.93,NE,45,0.0,0.0,81,0.00,,,0.00,WUHU216HW,2013-09-09 11:11:00,
2013-09-09 07:16:00,77.4,71.1,29.93,NE,45,0.0,0.0,81,0.00,,,0.00,WUHU216HW,2013-09-09 11:16:00,
2013-09-09 07:21:00,77.4,71.1,29.93,NNW,338,0.0,0.0,81,0.00,,,0.00,WUHU216HW,2013-09-09 11:21:00,
2013-09-09 07:26:00,77.4,71.5,29.93,NNW,338,0.0,0.0,82,0.00,,,0.00,WUHU216HW,2013-09-09 11:26:00,
2013-09-09 07:31:00,77.4,71.1,29.93,NNW,338,0.0,0.0,81,0.00,,,0.00,WUHU216HW,2013-09-09 11:31:00,
2013-09-09 07:36:00,77.4,71.1,29.93,NNW,338,0.0,0.0,81,0.00,,,0.00,WUHU216HW,2013-09-09 11:36:00,
2013-09-09 07:41:00,77.4,71.5,29.93,North,0,0.0,0.0,82,0.00,,,0.00,WUHU216HW,2013-09-09 11:41:00,
2013-09-09 07:46:00,77.6,71.6,29.94,NNW,338,0.0,0.0,82,0.00,,,0.00,WUHU216HW,2013-09-09 11:46:00,
2013-09-09 07:51:00,77.6,71.6,29.94,NNE,23,0.0,0.0,82,0.00,,,0.00,WUHU216HW,2013-09-09 11:51:00,
2013-09-09 07:56:00,77.8,71.8,29.94,East,90,0.0,1.1,82,0.00,,,0.00,WUHU216HW,2013-09-09 11:56:00,
2013-09-09 08:01:00,77.9,72.0,29.94,North,0,0.0,1.1,82,0.00,,,0.00,WUHU216HW,2013-09-09 12:01:00,
2013-09-09 08:06:00,78.1,72.2,29.94,NW,315,0.0,0.4,82,0.00,,,0.00,WUHU216HW,2013-09-09 12:06:00,
2013-09-09 08:11:00,78.1,72.2,29.94,NE,45,0.0,1.8,82,0.00,,,0.00,WUHU216HW,2013-09-09 12:11:00,
2013-09-09 08:16:00,78.3,72.4,29.94,ENE,68,0.2,1.8,82,0.00,,,0.00,WUHU216HW,2013-09-09 12:16:00,
2013-09-09 08:21:00,78.5,72.5,29.94,NE,45,0.0,1.1,82,0.00,,,0.00,WUHU216HW,2013-09-09 12:21:00,
2013-09-09 08:26:00,78.7,72.7,29.95,North,0,0.0,0.2,82,0.00,,,0.00,WUHU216HW,2013-09-09 12:26:00,
2013-09-09 08:31:00,78.8,72.9,29.95,North,0,0.0,1.1,82,0.00,,,0.00,WUHU216HW,2013-09-09 12:31:00,
2013-09-09 08:36:00,79.0,73.1,29.95,NNW,338,0.4,1.1,82,0.00,,,0.00,WUHU216HW,2013-09-09 12:36:00,
2013-09-09 08:41:00,79.2,73.3,29.95,NW,315,0.4,1.6,82,0.00,,,0.00,WUHU216HW,2013-09-09 12:41:00,
2013-09-09 08:46:00,79.4,73.5,29.95,NW,315,0.0,1.6,82,0.00,,,0.00,WUHU216HW,2013-09-09 12:46:00,
2013-09-09 08:51:00,79.6,73.3,29.96,NW,315,0.0,1.1,81,0.00,,,0.00,WUHU216HW,2013-09-09 12:51:00,
2013-09-09 08:56:00,79.7,73.5,29.95,East,90,0.7,1.1,81,0.00,,,0.00,WUHU216HW,2013-09-09 12:56:00,
2013-09-09 09:01:00,79.9,73.6,29.95,SSE,158,1.3,1.3,81,0.00,,,0.00,WUHU216HW,2013-09-09 13:01:00,
2013-09-09 09:06:00,80.3,74.0,29.95,SE,135,0.4,2.0,81,0.00,,,0.00,WUHU216HW,2013-09-09 13:06:00,
2013-09-09 09:11:00,80.6,74.0,29.95,East,90,1.1,2.0,80,0.00,,,0.00,WUHU216HW,2013-09-09 13:11:00,
2013-09-09 09:16:00,80.8,73.8,29.96,ESE,113,0.4,1.8,79,0.00,,,0.00,WUHU216HW,2013-09-09 13:16:00,
2013-09-09 09:21:00,81.2,74.2,29.96,ESE,113,0.7,1.8,79,0.00,,,0.00,WUHU216HW,2013-09-09 13:21:00,
2013-09-09 09:26:00,81.4,74.4,29.96,North,0,1.1,1.8,79,0.00,,,0.00,WUHU216HW,2013-09-09 13:26:00,
2013-09-09 09:31:00,81.7,74.6,29.96,NE,45,0.2,1.3,79,0.00,,,0.00,WUHU216HW,2013-09-09 13:31:00,
2013-09-09 09:36:00,82.1,75.0,29.96,East,90,1.6,1.6,79,0.00,,,0.00,WUHU216HW,2013-09-09 13:36:00,
2013-09-09 09:41:00,82.4,75.0,29.96,ESE,113,1.8,2.5,78,0.00,,,0.00,WUHU216HW,2013-09-09 13:41:00,
2013-09-09 09:46:00,83.0,75.1,29.97,SSE,158,0.0,2.5,77,0.00,,,0.00,WUHU216HW,2013-09-09 13:46:00,
2013-09-09 09:51:00,83.3,75.0,29.97,NNE,23,0.2,2.5,76,0.00,,,0.00,WUHU216HW,2013-09-09 13:51:00,
2013-09-09 09:56:00,83.7,75.3,29.97,East,90,0.4,2.5,76,0.00,,,0.00,WUHU216HW,2013-09-09 13:56:00,
2013-09-09 10:01:00,84.2,75.4,29.96,NE,45,0.0,1.6,75,0.00,,,0.00,WUHU216HW,2013-09-09 14:01:00,
2013-09-09 10:06:00,84.4,75.3,29.97,SW,225,0.0,1.3,74,0.00,,,0.00,WUHU216HW,2013-09-09 14:06:00,
2013-09-09 10:11:00,85.0,75.3,29.97,SE,135,0.4,1.3,73,0.00,,,0.00,WUHU216HW,2013-09-09 14:11:00,
2013-09-09 10:16:00,85.3,75.3,29.97,ENE,68,0.7,1.3,72,0.00,,,0.00,WUHU216HW,2013-09-09 14:16:00,
2013-09-09 10:21:00,85.7,75.7,29.97,SE,135,1.1,1.1,72,0.00,,,0.00,WUHU216HW,2013-09-09 14:21:00,
2013-09-09 10:26:00,86.0,75.2,29.97,East,90,0.9,1.1,70,0.00,,,0.00,WUHU216HW,2013-09-09 14:26:00,
2013-09-09 10:31:00,86.4,75.6,29.98,SE,135,0.4,1.8,70,0.00,,,0.00,WUHU216HW,2013-09-09 14:31:00,
2013-09-09 10:36:00,86.9,75.2,29.98,SSE,158,3.4,3.4,68,0.00,,,0.00,WUHU216HW,2013-09-09 14:36:00,
2013-09-09 10:41:00,87.5,75.6,29.98,SE,135,1.3,3.4,68,0.00,,,0.00,WUHU216HW,2013-09-09 14:41:00,
2013-09-09 10:46:00,87.8,75.5,29.98,ESE,113,0.0,2.5,67,0.00,,,0.00,WUHU216HW,2013-09-09 14:46:00,
2013-09-09 10:51:00,88.2,75.9,29.98,NNE,23,0.9,2.5,67,0.00,,,0.00,WUHU216HW,2013-09-09 14:51:00,
2013-09-09 10:56:00,88.2,75.4,29.98,SE,135,0.9,1.8,66,0.00,,,0.00,WUHU216HW,2013-09-09 14:56:00,
2013-09-09 11:01:00,88.6,75.3,29.98,ESE,113,0.4,2.2,65,0.00,,,0.00,WUHU216HW,2013-09-09 15:01:00,
2013-09-09 11:06:00,88.7,75.0,29.98,ESE,113,1.6,2.7,64,0.00,,,0.00,WUHU216HW,2013-09-09 15:06:00,
2013-09-09 11:11:00,89.3,75.1,29.98,North,0,0.4,2.7,63,0.00,,,0.00,WUHU216HW,2013-09-09 15:11:00,
2013-09-09 11:16:00,89.6,74.9,29.97,ESE,113,0.4,1.6,62,0.00,,,0.00,WUHU216HW,2013-09-09 15:16:00,
2013-09-09 11:21:00,90.0,74.8,29.97,North,0,0.4,1.6,61,0.00,,,0.00,WUHU216HW,2013-09-09 15:21:00,
2013-09-09 11:26:00,90.0,74.8,29.97,NE,45,0.7,1.6,61,0.00,,,0.00,WUHU216HW,2013-09-09 15:26:00,
2013-09-09 11:31:00,90.4,74.6,29.97,ESE,113,0.4,1.8,60,0.00,,,0.00,WUHU216HW,2013-09-09 15:31:00,
2013-09-09 11:36:00,90.7,75.0,29.97,NNW,338,0.4,2.2,60,0.00,,,0.00,WUHU216HW,2013-09-09 15:36:00,
2013-09-09 11:41:00,91.3,75.4,29.97,NNW,338,1.6,2.2,60,0.00,,,0.00,WUHU216HW,2013-09-09 15:41:00,
2013-09-09 11:46:00,91.3,74.9,29.97,NNE,23,0.0,1.6,59,0.00,,,0.00,WUHU216HW,2013-09-09 15:46:00,
2013-09-09 11:51:00,91.1,74.2,29.97,North,0,1.3,2.5,58,0.00,,,0.00,WUHU216HW,2013-09-09 15:51:00,
2013-09-09 11:56:00,91.3,74.9,29.97,SE,135,2.2,2.5,59,0.00,,,0.00,WUHU216HW,2013-09-09 15:56:00,
2013-09-09 12:01:00,91.8,75.4,29.97,NNW,338,0.4,3.4,59,0.00,,,0.00,WUHU216HW,2013-09-09 16:01:00,
2013-09-09 12:06:00,92.3,75.4,29.97,SE,135,0.9,3.4,58,0.00,,,0.00,WUHU216HW,2013-09-09 16:06:00,
2013-09-09 12:11:00,93.1,76.2,29.97,NNW,338,0.2,1.6,58,0.00,,,0.00,WUHU216HW,2013-09-09 16:11:00,
2013-09-09 12:16:00,93.4,77.1,29.97,NNW,338,0.2,1.6,59,0.00,,,0.00,WUHU216HW,2013-09-09 16:16:00,
2013-09-09 12:21:00,93.6,76.1,29.97,NE,45,0.2,1.6,57,0.00,,,0.00,WUHU216HW,2013-09-09 16:21:00,
2013-09-09 12:26:00,94.0,76.4,29.97,NNE,23,0.9,1.3,57,0.00,,,0.00,WUHU216HW,2013-09-09 16:26:00,
2013-09-09 12:31:00,94.0,76.4,29.97,SSE,158,0.0,1.8,57,0.00,,,0.00,WUHU216HW,2013-09-09 16:31:00,
2013-09-09 12:36:00,94.3,76.1,29.97,ENE,68,0.4,1.8,56,0.00,,,0.00,WUHU216HW,2013-09-09 16:36:00,
2013-09-09 12:41:00,94.5,76.3,29.97,NNW,338,0.2,1.1,56,0.00,,,0.00,WUHU216HW,2013-09-09 16:41:00,
2013-09-09 12:46:00,94.1,75.4,29.97,ESE,113,1.1,2.2,55,0.00,,,0.00,WUHU216HW,2013-09-09 16:46:00,
2013-09-09 12:51:00,94.0,75.3,29.97,SSE,158,1.8,2.2,55,0.00,,,0.00,WUHU216HW,2013-09-09 16:51:00,
2013-09-09 12:56:00,94.1,75.4,29.97,ESE,113,0.4,1.8,55,0.00,,,0.00,WUHU216HW,2013-09-09 16:56:00,
2013-09-09 13:01:00,94.1,74.9,29.97,South,180,2.0,2.0,54,0.00,,,0.00,WUHU216HW,2013-09-09 17:01:00,
2013-09-09 13:06:00,94.0,74.7,29.96,ESE,113,2.0,2.5,54,0.00,,,0.00,WUHU216HW,2013-09-09 17:06:00,
2013-09-09 13:11:00,94.3,75.6,29.97,ENE,68,1.8,2.5,55,0.00,,,0.00,WUHU216HW,2013-09-09 17:11:00,
2013-09-09 13:16:00,94.7,75.4,29.96,ESE,113,0.4,2.0,54,0.00,,,0.00,WUHU216HW,2013-09-09 17:16:00,
2013-09-09 13:21:00,94.7,74.9,29.96,ESE,113,1.6,1.8,53,0.00,,,0.00,WUHU216HW,2013-09-09 17:21:00,
2013-09-09 13:26:00,94.7,74.9,29.96,ENE,68,1.3,2.0,53,0.00,,,0.00,WUHU216HW,2013-09-09 17:26:00,
2013-09-09 13:31:00,95.0,75.2,29.96,ENE,68,0.2,2.0,53,0.00,,,0.00,WUHU216HW,2013-09-09 17:31:00,
2013-09-09 13:36:00,94.9,74.5,29.96,ENE,68,0.0,1.8,52,0.00,,,0.00,WUHU216HW,2013-09-09 17:36:00,
2013-09-09 13:41:00,94.7,74.3,29.96,NNE,23,0.0,2.2,52,0.00,,,0.00,WUHU216HW,2013-09-09 17:41:00,
2013-09-09 13:46:00,94.9,74.0,29.96,SE,135,1.1,2.2,51,0.00,,,0.00,WUHU216HW,2013-09-09 17:46:00,
2013-09-09 13:51:00,95.6,73.4,29.95,South,180,1.1,2.0,49,0.00,,,0.00,WUHU216HW,2013-09-09 17:51:00,
2013-09-09 13:56:00,95.8,72.9,29.95,ESE,113,0.4,1.8,48,0.00,,,0.00,WUHU216HW,2013-09-09 17:56:00,
2013-09-09 14:01:00,95.4,74.0,29.95,SSE,158,1.1,1.8,50,0.00,,,0.00,WUHU216HW,2013-09-09 18:01:00,
2013-09-09 14:06:00,95.6,72.8,29.94,SE,135,3.4,3.4,48,0.00,,,0.00,WUHU216HW,2013-09-09 18:06:00,
2013-09-09 14:11:00,95.8,73.6,29.95,NNW,338,0.4,3.4,49,0.00,,,0.00,WUHU216HW,2013-09-09 18:11:00,
2013-09-09 14:16:00,96.1,73.9,29.95,East,90,1.8,3.4,49,0.00,,,0.00,WUHU216HW,2013-09-09 18:16:00,
2013-09-09 14:21:00,96.7,73.7,29.95,ENE,68,0.9,2.0,48,0.00,,,0.00,WUHU216HW,2013-09-09 18:21:00,
2013-09-09 14:26:00,97.2,74.3,29.94,East,90,1.1,2.2,48,0.00,,,0.00,WUHU216HW,2013-09-09 18:26:00,
2013-09-09 14:31:00,97.2,72.9,29.94,SE,135,0.4,2.9,46,0.00,,,0.00,WUHU216HW,2013-09-09 18:31:00,
2013-09-09 14:36:00,97.4,73.1,29.94,SW,225,1.1,2.9,46,0.00,,,0.00,WUHU216HW,2013-09-09 18:36:00,
2013-09-09 14:41:00,97.6,73.9,29.94,East,90,0.9,2.9,47,0.00,,,0.00,WUHU216HW,2013-09-09 18:41:00,
2013-09-09 14:46:00,97.7,72.7,29.94,SE,135,2.9,2.9,45,0.00,,,0.00,WUHU216HW,2013-09-09 18:46:00,
2013-09-09 14:51:00,97.7,73.4,29.93,North,0,0.4,3.4,46,0.00,,,0.00,WUHU216HW,2013-09-09 18:51:00,
2013-09-09 14:56:00,97.4,72.4,29.93,ESE,113,0.7,3.4,45,0.00,,,0.00,WUHU216HW,2013-09-09 18:56:00,
2013-09-09 15:01:00,97.6,73.3,29.93,NNW,338,0.2,2.5,46,0.00,,,0.00,WUHU216HW,2013-09-09 19:01:00,
2013-09-09 15:06:00,97.7,72.7,29.93,ESE,113,0.9,2.0,45,0.00,,,0.00,WUHU216HW,2013-09-09 19:06:00,
2013-09-09 15:11:00,97.7,72.7,29.92,NNE,23,1.3,2.5,45,0.00,,,0.00,WUHU216HW,2013-09-09 19:11:00,
2013-09-09 15:16:00,97.7,73.4,29.92,WNW,293,1.1,2.5,46,0.00,,,0.00,WUHU216HW,2013-09-09 19:16:00,
2013-09-09 15:21:00,98.3,73.9,29.92,East,90,0.4,2.2,46,0.00,,,0.00,WUHU216HW,2013-09-09 19:21:00,
2013-09-09 15:26:00,98.5,73.4,29.92,NE,45,0.2,2.7,45,0.00,,,0.00,WUHU216HW,2013-09-09 19:26:00,
2013-09-09 15:31:00,98.5,73.4,29.92,NNW,338,0.2,2.7,45,0.00,,,0.00,WUHU216HW,2013-09-09 19:31:00,
2013-09-09 15:36:00,98.5,72.7,29.92,East,90,0.4,1.3,44,0.00,,,0.00,WUHU216HW,2013-09-09 19:36:00,
2013-09-09 15:41:00,97.9,72.9,29.92,NNE,23,0.0,2.0,45,0.00,,,0.00,WUHU216HW,2013-09-09 19:41:00,
2013-09-09 15:46:00,97.6,72.5,29.92,NE,45,0.7,3.1,45,0.00,,,0.00,WUHU216HW,2013-09-09 19:46:00,
2013-09-09 15:51:00,97.7,72.7,29.92,NW,315,0.2,3.1,45,0.00,,,0.00,WUHU216HW,2013-09-09 19:51:00,
2013-09-09 15:56:00,98.3,73.2,29.92,SE,135,0.9,2.0,45,0.00,,,0.00,WUHU216HW,2013-09-09 19:56:00,
2013-09-09 16:01:00,98.1,73.1,29.92,NE,45,0.2,2.2,45,0.00,,,0.00,WUHU216HW,2013-09-09 20:01:00,
2013-09-09 16:06:00,98.3,73.2,29.92,WNW,293,0.0,2.2,45,0.00,,,0.00,WUHU216HW,2013-09-09 20:06:00,
2013-09-09 16:11:00,98.1,71.7,29.91,East,90,0.9,1.3,43,0.00,,,0.00,WUHU216HW,2013-09-09 20:11:00,
2013-09-09 16:16:00,97.9,72.2,29.91,NNW,338,1.1,1.3,44,0.00,,,0.00,WUHU216HW,2013-09-09 20:16:00,
2013-09-09 16:21:00,97.9,71.6,29.91,NE,45,1.1,1.3,43,0.00,,,0.00,WUHU216HW,2013-09-09 20:21:00,
2013-09-09 16:26:00,97.6,71.9,29.91,NW,315,1.1,3.4,44,0.00,,,0.00,WUHU216HW,2013-09-09 20:26:00,
2013-09-09 16:31:00,97.4,72.4,29.91,NE,45,1.1,3.4,45,0.00,,,0.00,WUHU216HW,2013-09-09 20:31:00,
2013-09-09 16:36:00,97.4,72.4,29.91,ESE,113,1.1,1.8,45,0.00,,,0.00,WUHU216HW,2013-09-09 20:36:00,
2013-09-09 16:41:00,97.2,71.6,29.91,SE,135,1.6,2.0,44,0.00,,,0.00,WUHU216HW,2013-09-09 20:41:00,
2013-09-09 16:46:00,97.4,72.4,29.91,North,0,0.4,2.0,45,0.00,,,0.00,WUHU216HW,2013-09-09 20:46:00,
2013-09-09 16:51:00,97.2,72.3,29.90,East,90,0.7,1.6,45,0.00,,,0.00,WUHU216HW,2013-09-09 20:51:00,
2013-09-09 16:56:00,96.7,72.5,29.90,North,0,0.0,0.9,46,0.00,,,0.00,WUHU216HW,2013-09-09 20:56:00,
2013-09-09 17:01:00,96.5,71.6,29.90,North,0,0.4,1.8,45,0.00,,,0.00,WUHU216HW,2013-09-09 21:01:00,
2013-09-09 17:06:00,95.9,71.7,29.90,North,0,0.0,1.8,46,0.00,,,0.00,WUHU216HW,2013-09-09 21:06:00,
2013-09-09 17:11:00,95.4,71.3,29.90,NE,45,0.2,1.8,46,0.00,,,0.00,WUHU216HW,2013-09-09 21:11:00,
2013-09-09 17:16:00,95.4,71.9,29.90,NNW,338,0.0,1.8,47,0.00,,,0.00,WUHU216HW,2013-09-09 21:16:00,
2013-09-09 17:21:00,95.6,71.5,29.90,NNW,338,0.0,0.9,46,0.00,,,0.00,WUHU216HW,2013-09-09 21:21:00,
2013-09-09 17:26:00,95.8,71.7,29.90,NNW,338,0.0,1.1,46,0.00,,,0.00,WUHU216HW,2013-09-09 21:26:00,
2013-09-09 17:31:00,95.6,72.1,29.90,NNW,338,0.4,1.1,47,0.00,,,0.00,WUHU216HW,2013-09-09 21:31:00,
2013-09-09 17:36:00,95.2,73.1,29.90,NW,315,0.0,0.9,49,0.00,,,0.00,WUHU216HW,2013-09-09 21:36:00,
2013-09-09 17:41:00,95.0,74.2,29.90,SSE,158,0.2,1.1,51,0.00,,,0.00,WUHU216HW,2013-09-09 21:41:00,
2013-09-09 17:46:00,94.7,74.3,29.90,NNW,338,0.0,2.5,52,0.00,,,0.00,WUHU216HW,2013-09-09 21:46:00,
2013-09-09 17:51:00,94.7,73.8,29.90,SSE,158,0.2,2.5,51,0.00,,,0.00,WUHU216HW,2013-09-09 21:51:00,
2013-09-09 17:56:00,94.3,73.4,29.90,North,0,0.0,1.8,51,0.00,,,0.00,WUHU216HW,2013-09-09 21:56:00,
2013-09-09 18:01:00,94.3,74.0,29.90,East,90,0.4,1.8,52,0.00,,,0.00,WUHU216HW,2013-09-09 22:01:00,
2013-09-09 18:06:00,94.1,73.8,29.90,South,180,0.0,1.6,52,0.00,,,0.00,WUHU216HW,2013-09-09 22:06:00,
2013-09-09 18:11:00,93.8,73.4,29.90,NNW,338,0.2,1.8,52,0.00,,,0.00,WUHU216HW,2013-09-09 22:11:00,
2013-09-09 18:16:00,93.4,73.7,29.90,NNW,338,0.0,1.8,53,0.00,,,0.00,WUHU216HW,2013-09-09 22:16:00,
2013-09-09 18:21:00,93.2,73.5,29.90,West,270,0.0,0.7,53,0.00,,,0.00,WUHU216HW,2013-09-09 22:21:00,
2013-09-09 18:26:00,92.9,73.2,29.89,ENE,68,0.0,0.4,53,0.00,,,0.00,WUHU216HW,2013-09-09 22:26:00,
2013-09-09 18:31:00,92.5,73.4,29.89,NNW,338,0.2,0.4,54,0.00,,,0.00,WUHU216HW,2013-09-09 22:31:00,
2013-09-09 18:36:00,92.2,73.1,29.89,NNW,338,0.0,0.4,54,0.00,,,0.00,WUHU216HW,2013-09-09 22:36:00,
2013-09-09 18:41:00,91.8,73.3,29.89,NW,315,0.0,0.4,55,0.00,,,0.00,WUHU216HW,2013-09-09 22:41:00,
2013-09-09 18:46:00,91.4,73.4,29.89,WSW,248,0.4,2.5,56,0.00,,,0.00,WUHU216HW,2013-09-09 22:46:00,
2013-09-09 18:51:00,91.3,73.3,29.89,NNE,23,0.0,2.5,56,0.00,,,0.00,WUHU216HW,2013-09-09 22:51:00,
2013-09-09 18:56:00,91.3,72.7,29.90,North,0,0.0,0.4,55,0.00,,,0.00,WUHU216HW,2013-09-09 22:56:00,
2013-09-09 19:01:00,91.1,73.1,29.90,ENE,68,0.4,1.3,56,0.00,,,0.00,WUHU216HW,2013-09-09 23:01:00,
2013-09-09 19:06:00,90.9,71.9,29.90,NE,45,0.0,1.3,54,0.00,,,0.00,WUHU216HW,2013-09-09 23:06:00,
2013-09-09 19:11:00,90.9,71.9,29.90,North,0,0.0,1.1,54,0.00,,,0.00,WUHU216HW,2013-09-09 23:11:00,
2013-09-09 19:16:00,90.9,71.9,29.91,SW,225,0.0,0.9,54,0.00,,,0.00,WUHU216HW,2013-09-09 23:16:00,
2013-09-09 19:21:00,90.7,71.7,29.91,East,90,0.0,0.9,54,0.00,,,0.00,WUHU216HW,2013-09-09 23:21:00,
2013-09-09 19:26:00,90.5,71.6,29.91,South,180,0.0,0.4,54,0.00,,,0.00,WUHU216HW,2013-09-09 23:26:00,
2013-09-09 19:31:00,90.2,71.2,29.91,North,0,0.0,0.4,54,0.00,,,0.00,WUHU216HW,2013-09-09 23:31:00,
2013-09-09 19:36:00,90.0,71.1,29.91,North,0,0.0,0.4,54,0.00,,,0.00,WUHU216HW,2013-09-09 23:36:00,
2013-09-09 19:41:00,89.8,70.9,29.91,SE,135,0.0,0.2,54,0.00,,,0.00,WUHU216HW,2013-09-09 23:41:00,
2013-09-09 19:46:00,89.6,70.7,29.92,NNE,23,0.0,0.0,54,0.00,,,0.00,WUHU216HW,2013-09-09 23:46:00,
2013-09-09 19:51:00,89.5,71.1,29.92,NNE,23,0.0,0.9,55,0.00,,,0.00,WUHU216HW,2013-09-09 23:51:00,
2013-09-09 19:56:00,89.5,70.6,29.92,SE,135,0.2,1.1,54,0.00,,,0.00,WUHU216HW,2013-09-09 23:56:00,
2013-09-09 20:01:00,89.1,70.3,29.92,North,0,1.1,1.1,54,0.00,,,0.00,WUHU216HW,2013-09-10 00:01:00,
2013-09-09 20:06:00,88.9,70.1,29.92,NNE,23,0.0,1.1,54,0.00,,,0.00,WUHU216HW,2013-09-10 00:06:00,
2013-09-09 20:11:00,88.9,70.1,29.92,ENE,68,0.4,1.8,54,0.00,,,0.00,WUHU216HW,2013-09-10 00:11:00,
2013-09-09 20:16:00,88.6,69.2,29.92,NE,45,0.4,1.8,53,0.00,,,0.00,WUHU216HW,2013-09-10 00:16:00,
2013-09-09 20:21:00,88.6,69.8,29.92,North,0,0.0,0.9,54,0.00,,,0.00,WUHU216HW,2013-09-10 00:21:00,
2013-09-09 20:26:00,88.4,69.6,29.93,ENE,68,0.4,1.3,54,0.00,,,0.00,WUHU216HW,2013-09-10 00:26:00,
2013-09-09 20:31:00,88.2,69.5,29.93,NNE,23,0.0,1.3,54,0.00,,,0.00,WUHU216HW,2013-09-10 00:31:00,
2013-09-09 20:36:00,88.2,69.5,29.93,ENE,68,0.0,1.3,54,0.00,,,0.00,WUHU216HW,2013-09-10 00:36:00,
2013-09-09 20:41:00,88.0,69.3,29.93,SSW,203,0.7,1.6,54,0.00,,,0.00,WUHU216HW,2013-09-10 00:41:00,
2013-09-09 20:46:00,88.0,69.3,29.93,NNE,23,0.0,1.8,54,0.00,,,0.00,WUHU216HW,2013-09-10 00:46:00,
2013-09-09 20:51:00,87.8,69.1,29.93,East,90,0.9,2.2,54,0.00,,,0.00,WUHU216HW,2013-09-10 00:51:00,
2013-09-09 20:56:00,87.8,69.1,29.93,SE,135,0.9,3.4,54,0.00,,,0.00,WUHU216HW,2013-09-10 00:56:00,
2013-09-09 21:01:00,87.7,69.5,29.93,South,180,0.0,3.4,55,0.00,,,0.00,WUHU216HW,2013-09-10 01:01:00,
2013-09-09 21:06:00,87.5,69.3,29.94,North,0,0.0,2.5,55,0.00,,,0.00,WUHU216HW,2013-09-10 01:06:00,
2013-09-09 21:11:00,87.5,69.3,29.94,NE,45,0.9,2.5,55,0.00,,,0.00,WUHU216HW,2013-09-10 01:11:00,
2013-09-09 21:16:00,87.3,69.1,29.94,WNW,293,0.4,1.6,55,0.00,,,0.00,WUHU216HW,2013-09-10 01:16:00,
2013-09-09 21:21:00,87.1,69.5,29.95,NNW,338,1.1,1.1,56,0.00,,,0.00,WUHU216HW,2013-09-10 01:21:00,
2013-09-09 21:26:00,87.1,69.5,29.95,SE,135,0.2,1.8,56,0.00,,,0.00,WUHU216HW,2013-09-10 01:26:00,
2013-09-09 21:31:00,86.8,69.7,29.95,SSE,158,0.2,1.8,57,0.00,,,0.00,WUHU216HW,2013-09-10 01:31:00,
2013-09-09 21:36:00,86.8,69.7,29.95,NNE,23,0.2,1.8,57,0.00,,,0.00,WUHU216HW,2013-09-10 01:36:00,
2013-09-09 21:41:00,86.6,70.0,29.96,SSE,158,1.8,2.9,58,0.00,,,0.00,WUHU216HW,2013-09-10 01:41:00,
2013-09-09 21:46:00,86.4,70.4,29.96,SE,135,1.3,3.1,59,0.00,,,0.00,WUHU216HW,2013-09-10 01:46:00,
2013-09-09 21:51:00,86.2,70.2,29.96,ESE,113,1.1,3.1,59,0.00,,,0.00,WUHU216HW,2013-09-10 01:51:00,
2013-09-09 21:56:00,86.0,70.6,29.96,North,0,0.7,4.0,60,0.00,,,0.00,WUHU216HW,2013-09-10 01:56:00,
2013-09-09 22:01:00,86.0,71.0,29.97,ESE,113,0.7,4.0,61,0.00,,,0.00,WUHU216HW,2013-09-10 02:01:00,
2013-09-09 22:06:00,85.9,70.8,29.97,NE,45,0.4,2.5,61,0.00,,,0.00,WUHU216HW,2013-09-10 02:06:00,
2013-09-09 22:11:00,85.7,71.2,29.97,North,0,1.3,4.9,62,0.00,,,0.00,WUHU216HW,2013-09-10 02:11:00,
2013-09-09 22:16:00,85.7,71.2,29.97,ENE,68,0.0,4.9,62,0.00,,,0.00,WUHU216HW,2013-09-10 02:16:00,
2013-09-09 22:21:00,85.3,71.3,29.97,SE,135,0.9,3.4,63,0.00,,,0.00,WUHU216HW,2013-09-10 02:21:00,
2013-09-09 22:26:00,85.3,71.3,29.97,ESE,113,0.7,3.4,63,0.00,,,0.00,WUHU216HW,2013-09-10 02:26:00,
2013-09-09 22:31:00,85.1,71.6,29.97,SW,225,1.1,2.5,64,0.00,,,0.00,WUHU216HW,2013-09-10 02:31:00,
2013-09-09 22:36:00,85.0,71.5,29.98,East,90,0.4,2.5,64,0.00,,,0.00,WUHU216HW,2013-09-10 02:36:00,
2013-09-09 22:41:00,85.0,71.9,29.97,SE,135,0.4,2.2,65,0.00,,,0.00,WUHU216HW,2013-09-10 02:41:00,
2013-09-09 22:46:00,84.8,71.7,29.97,NE,45,0.0,2.2,65,0.00,,,0.00,WUHU216HW,2013-09-10 02:46:00,
2013-09-09 22:51:00,84.6,71.6,29.98,ESE,113,0.7,2.2,65,0.00,,,0.00,WUHU216HW,2013-09-10 02:51:00,
2013-09-09 22:56:00,84.6,72.0,29.98,East,90,0.9,1.8,66,0.00,,,0.00,WUHU216HW,2013-09-10 02:56:00,
2013-09-09 23:01:00,84.4,71.8,29.98,East,90,0.4,1.8,66,0.00,,,0.00,WUHU216HW,2013-09-10 03:01:00,
2013-09-09 23:06:00,84.4,72.3,29.98,North,0,0.7,1.8,67,0.00,,,0.00,WUHU216HW,2013-09-10 03:06:00,
2013-09-09 23:11:00,84.2,72.1,29.98,East,90,0.0,1.8,67,0.00,,,0.00,WUHU216HW,2013-09-10 03:11:00,
2013-09-09 23:16:00,84.2,72.1,29.98,North,0,0.4,1.8,67,0.00,,,0.00,WUHU216HW,2013-09-10 03:16:00,
2013-09-09 23:21:00,84.2,72.1,29.98,SE,135,0.0,2.2,67,0.00,,,0.00,WUHU216HW,2013-09-10 03:21:00,
2013-09-09 23:26:00,84.1,71.9,29.99,NE,45,2.9,3.1,67,0.00,,,0.00,WUHU216HW,2013-09-10 03:26:00,
2013-09-09 23:31:00,83.9,72.2,29.98,SE,135,0.2,3.1,68,0.00,,,0.00,WUHU216HW,2013-09-10 03:31:00,
2013-09-09 23:36:00,83.7,72.0,29.98,North,0,0.2,2.9,68,0.00,,,0.00,WUHU216HW,2013-09-10 03:36:00,
2013-09-09 23:41:00,83.7,72.0,29.98,North,0,0.4,1.8,68,0.00,,,0.00,WUHU216HW,2013-09-10 03:41:00,
2013-09-09 23:46:00,83.7,72.0,29.98,East,90,1.3,1.8,68,0.00,,,0.00,WUHU216HW,2013-09-10 03:46:00,
2013-09-09 23:51:00,83.7,72.0,29.99,NNE,23,0.4,1.3,68,0.00,,,0.00,WUHU216HW,2013-09-10 03:51:00,
2013-09-09 23:56:00,83.5,71.8,29.98,SE,135,0.7,1.3,68,0.00,,,0.00,WUHU216HW,2013-09-10 03:56:00,